Location: Kampernieuwstad
(52.5135°N, 5.8742°E)
Time: 19:32:58
(UTC+00:00)

Cosmos 1536 - Pass Details

Date: 15 May 2026
Orbit: 482 x 500 km, 82.5° (Epoch: 6 June)

Event Time Altitude Azimuth Distance (km) Brightness Sun altitude
Rises 21:29:47 0° 354° (N) 2,571 7.5 -13.6°
Reaches altitude 10° 21:31:59 10° 2° (N) 1,688 6.2 -13.8°
Maximum altitude 21:35:30 41° 74° (ENE) 729 3.3 -14.0°
Enters shadow 21:37:14 24° 129° (SE) 1,050 3.7 -14.2°
